Weather observations for the past three days for
Oelwein Municipal Airport
Imperial (Metric)
Date Time (cdt) Wind (mph) Vis. (mi.) Weather Sky Cond. Temperature (ºF) Relative Humidity Wind Chill (°F) Heat Index (°F) Pressure Precipitation (in)
Air Dwpt 6 hour altimeter (in) sea level (mb) 1 hr 3 hr 6 hr
Max. Min.
13 02:35 S 12 10.00 Overcast OVC080 71.6 66.2 83% 29.77 0.0
13 02:15 S 12 10.00 Partly Cloudy SCT080 71.6 66.2 83% 29.78 0.0
13 01:55 S 10 10.00 Partly Cloudy SCT075 SCT090 73.4 66.2 78% 29.77 0.0
13 01:35 SW 12 10.00 Mostly Cloudy SCT075 BKN090 73.4 64.4 74% 29.78 0.0
13 01:15 SW 15 10.00 Partly Cloudy SCT090 73.4 64.4 74% 29.78 0.0
13 00:55 S 12 10.00 Fair CLR 71.6 64.4 78% 29.79 0.0
13 00:35 S 10 10.00 Fair CLR 69.8 64.4 83% 29.78 0.0
13 00:15 S 10 10.00 Fair CLR 69.8 64.4 83% 29.78 0.0
12 23:55 S 8 10.00 Fair CLR 69.8 64.4 83% 29.79 0.0
12 23:35 S 8 10.00 Fair CLR 69.8 64.4 83% 29.79 0.0
12 23:15 S 8 10.00 Fair CLR 69.8 64.4 83% 29.79 0.0
12 22:55 S 9 10.00 Fair CLR 71.6 64.4 78% 29.8 0.0
12 22:35 S 9 10.00 A Few Clouds FEW160 71.6 64.4 78% 29.8 0.0
12 22:15 S 10 10.00 Partly Cloudy FEW150 SCT170 69.8 66.2 88% 29.8 0.0
12 21:55 S 9 10.00 A Few Clouds FEW170 71.6 66.2 83% 29.79 0.0
12 21:35 SE 9 10.00 Mostly Cloudy BKN170 71.6 66.2 83% 29.79 0.0
12 21:15 SE 9 10.00 Partly Cloudy SCT180 71.6 66.2 83% 29.78 0.0
12 20:55 SE 12 10.00 Fair CLR 71.6 66.2 83% 29.78 0.0
12 20:35 S 12 10.00 Fair CLR 73.4 66.2 78% 29.77 0.0
12 20:15 S 13 10.00 Fair CLR 73.4 66.2 78% 29.78 0.0
12 19:55 SE 12 10.00 Fair CLR 73.4 66.2 78% 29.78 0.0
12 19:35 SE 14 10.00 Fair CLR 75.2 66.2 74% 77 29.79 0.0
12 19:15 SE 14 10.00 A Few Clouds FEW120 FEW140 75.2 66.2 74% 77 29.8 0.0
12 18:55 SE 9 G 15 10.00 A Few Clouds FEW120 FEW140 73.4 66.2 78% 29.82 0.0
12 18:35 SE 7 10.00 Fair CLR 73.4 66.2 78% 29.84 0.0
12 18:15 SE 5 10.00 Fair CLR 73.4 66.2 78% 29.85 0.0
12 17:55 E 6 10.00 Fair CLR 73.4 66.2 78% 29.85 0.0
12 17:35 E 7 10.00 Fair CLR 73.4 66.2 78% 29.85 0.0
12 17:15 E 10 10.00 Fair CLR 73.4 66.2 78% 29.86 0.0
12 16:55 E 12 10.00 Fair CLR 71.6 66.2 83% 29.88 0.0
12 16:35 NE 13 10.00 Fair CLR 71.6 66.2 83% 29.9 0.0
12 16:15 NE 18 10.00 Fair CLR 69.8 66.2 88% 29.9 0.0
12 15:55 N 16 G 25 9.00 Partly Cloudy FEW075 SCT120 69.8 68 94% 29.91 0.0
12 15:35 N 20 G 31 7.00 Mostly Cloudy FEW050 SCT075 BKN110 78.8 62.6 58% 80 29.91 0.0
12 15:15 SW 14 G 25 10.00 Partly Cloudy SCT110 86 55.4 35% 85 29.86 0.0
12 14:55 SW 22 10.00 A Few Clouds and Breezy FEW110 87.8 55.4 33% 86 29.85 0.0
12 14:35 SW 23 G 31 10.00 Fair and Breezy CLR 91.4 55.4 30% 90 29.83 0.0
12 14:15 SW 23 G 30 10.00 Fair and Breezy CLR 91.4 57.2 32% 90 29.84 0.0
12 13:55 SW 23 G 30 10.00 Fair and Breezy CLR 89.6 55.4 31% 88 29.84 0.0
12 13:35 SW 22 G 31 10.00 Fair and Breezy CLR 89.6 57.2 33% 88 29.83 0.0
12 13:15 SW 22 G 29 10.00 Fair and Breezy CLR 89.6 57.2 33% 88 29.84 0.0
12 12:55 SW 22 G 31 10.00 Fair and Breezy CLR 89.6 59 36% 89 29.84 0.0
12 12:35 SW 20 G 25 10.00 Fair CLR 89.6 60.8 38% 90 29.85 0.0
12 12:15 SW 22 10.00 Fair and Breezy CLR 87.8 60.8 40% 88 29.85 0.0
12 11:55 SW 16 G 22 10.00 Fair CLR 87.8 59 38% 87 29.85 0.0
12 11:35 SW 10 G 21 10.00 Fair CLR 87.8 59 38% 87 29.88 0.0
12 11:15 S 16 10.00 Fair CLR 86 57.2 38% 85 29.88 0.0
12 10:55 SW 14 G 21 10.00 Fair CLR 86 53.6 33% 84 29.88 0.0
12 10:35 SW 17 10.00 Fair CLR 84.2 53.6 35% 83 29.88 0.0
12 10:15 S 13 10.00 Fair CLR 84.2 53.6 35% 83 29.88 0.0
12 09:55 S 9 10.00 Fair CLR 82.4 53.6 37% 81 29.89 0.0
12 09:35 S 8 10.00 Fair CLR 80.6 53.6 39% 80 29.9 0.0
12 09:15 S 8 10.00 Fair CLR 78.8 55.4 45% 79 29.89 0.0
12 08:55 S 6 10.00 Fair CLR 77 55.4 47% 79 29.89 0.0
12 08:35 S 6 10.00 Fair CLR 75.2 55.4 50% 78 29.89 0.0
12 08:15 S 5 10.00 Fair CLR 71.6 55.4 57% 29.9 0.0
12 07:55 S 5 10.00 Fair CLR 68 59 73% 29.9 0.0
12 07:35 S 3 10.00 Fair CLR 66.2 59 78% 29.91 0.0
12 07:15 S 5 9.00 Fair CLR 64.4 59 83% 29.91 0.0
12 06:55 S 6 10.00 Fair CLR 64.4 59 83% 29.91 0.0
12 06:35 Calm 10.00 Fair CLR 62.6 59 88% 29.91 0.0
12 06:15 SW 5 10.00 Fair CLR 60.8 57.2 88% 29.91 0.0
12 05:55 SW 3 10.00 Fair CLR 59 59 100% 29.91 0.0
12 05:35 Calm 10.00 Fair CLR 57.2 57.2 100% 29.91 0.0
12 05:15 Calm 10.00 Fair CLR 59 57.2 94% 29.9 0.0
12 04:55 Calm 10.00 Fair CLR 59 57.2 94% 29.9 0.0
12 04:35 Calm 10.00 Fair CLR 60.8 57.2 88% 29.9 0.0
12 04:15 Calm 10.00 Fair CLR 60.8 55.4 83% 29.9 0.0
12 03:55 Calm 10.00 Fair CLR 60.8 55.4 83% 29.9 0.0
12 03:35 SW 6 10.00 Fair CLR 60.8 57.2 88% 29.9 0.0
12 03:15 SW 5 10.00 Fair CLR 59 55.4 88% 29.89 0.0
12 02:55 Calm 10.00 Fair CLR 59 55.4 88% 29.88 0.0
12 02:35 Calm 10.00 Fair CLR 60.8 57.2 88% 29.88 0.0
12 02:15 Calm 10.00 Fair CLR 66.2 51.8 60% 29.87 0.0
12 01:55 Calm 10.00 Fair CLR 64.4 55.4 73% 29.87 0.0
12 01:35 SW 7 10.00 Fair CLR 60.8 55.4 83% 29.87 0.0
12 01:15 Calm 10.00 Fair CLR 64.4 53.6 68% 29.87 0.0
12 00:55 Calm 10.00 Fair CLR 64.4 53.6 68% 29.87 0.0
12 00:35 Calm 10.00 Fair CLR 68 53.6 60% 29.87 0.0
12 00:15 NW 3 10.00 Fair CLR 69.8 50 50% 29.87 0.0
11 23:55 NW 5 10.00 Fair CLR 69.8 51.8 53% 29.87 0.0
11 23:35 NW 6 10.00 Fair CLR 69.8 51.8 53% 29.87 0.0
11 23:15 W 6 10.00 Fair CLR 68 53.6 60% 29.86 0.0
11 22:55 W 5 10.00 Fair CLR 69.8 55.4 60% 29.86 0.0
11 22:35 W 5 10.00 Fair CLR 69.8 55.4 60% 29.86 0.0
11 22:15 NW 6 10.00 Fair CLR 71.6 57.2 61% 29.85 0.0
11 21:55 W 6 10.00 Fair CLR 71.6 57.2 61% 29.85 0.0
11 21:35 W 6 10.00 Fair CLR 71.6 57.2 61% 29.84 0.0
11 21:15 SW 7 9.00 Fair CLR 75.2 55.4 50% 78 29.83 0.0
11 20:35 SW 6 8.00 Fair CLR 78.8 57.2 48% 80 29.82 0.0
11 20:15 SW 6 10.00 Fair CLR 80.6 57.2 45% 81 29.82 0.0
11 19:55 SW 7 10.00 Fair CLR 82.4 55.4 40% 82 29.82 0.0
11 19:35 SW 7 10.00 Fair CLR 82.4 55.4 40% 82 29.82 0.0
11 19:15 W 9 10.00 Fair CLR 82.4 53.6 37% 81 29.82 0.0
11 18:55 W 12 G 17 10.00 Fair CLR 84.2 53.6 35% 83 29.82 0.0
11 18:35 SW 12 G 18 10.00 Fair CLR 84.2 55.4 37% 83 29.82 0.0
11 17:55 W 14 10.00 Fair CLR 84.2 57.2 40% 83 29.83 0.0
11 17:35 W 15 10.00 Fair CLR 84.2 55.4 37% 83 29.83 0.0
11 17:15 W 13 10.00 Fair CLR 82.4 55.4 40% 82 29.83 0.0
11 16:55 W 13 10.00 Fair CLR 82.4 57.2 42% 82 29.84 0.0
11 16:35 W 13 G 20 10.00 A Few Clouds FEW060 FEW075 82.4 57.2 42% 82 29.84 0.0
11 16:15 W 15 G 22 10.00 A Few Clouds FEW055 FEW070 82.4 57.2 42% 82 29.85 0.0
11 15:55 SW 15 G 23 10.00 A Few Clouds FEW055 80.6 57.2 45% 81 29.85 0.0
11 15:35 SW 20 G 25 10.00 Partly Cloudy SCT055 80.6 57.2 45% 81 29.86 0.0
11 15:15 SW 18 G 25 10.00 Mostly Cloudy BKN055 78.8 55.4 45% 79 29.87 0.0
11 14:55 SW 20 10.00 Mostly Cloudy BKN055 78.8 55.4 45% 79 29.87 0.0
11 14:35 SW 17 G 25 10.00 Mostly Cloudy SCT055 BKN065 77 55.4 47% 79 29.88 0.0
11 14:15 SW 23 10.00 A Few Clouds and Breezy FEW065 78.8 53.6 42% 79 29.89 0.0
11 13:55 SW 17 G 24 10.00 Fair CLR 77 53.6 44% 78 29.89 0.0
11 13:35 SW 22 10.00 Partly Cloudy and Breezy FEW075 SCT085 77 51.8 42% 78 29.9 0.0
11 13:15 S 23 10.00 A Few Clouds and Breezy FEW080 75.2 50 41% 78 29.9 0.0
11 12:55 S 20 10.00 Fair CLR 73.4 50 44% 29.91 0.0
11 12:35 S 15 10.00 Fair CLR 71.6 50 47% 29.92 0.0
11 12:15 S 16 10.00 Fair CLR 69.8 50 50% 29.92 0.0
11 11:35 S 12 G 17 8.00 A Few Clouds FEW060 68 50 53% 29.95 0.0
11 11:15 SW 13 9.00 Partly Cloudy FEW060 SCT070 68 48.2 49% 29.96 0.0
11 10:55 S 12 G 17 10.00 Overcast OVC070 68 46.4 46% 29.95 0.0
11 10:35 S 12 10.00 Overcast OVC070 68 44.6 43% 29.96 0.0
11 10:15 S 15 10.00 Mostly Cloudy BKN075 68 44.6 43% 29.97 0.0
11 09:55 S 17 10.00 Partly Cloudy SCT075 68 44.6 43% 29.97 0.0
11 09:30 S 18 10.00 Fair CLR 68 44.6 43% 29.97 0.0
11 09:15 S 17 10.00 Fair CLR 68 42.8 40% 29.97 0.0
11 08:55 S 17 10.00 Partly Cloudy SCT080 SCT090 68 44.6 43% 29.97 0.0
11 08:35 S 15 G 21 10.00 Mostly Cloudy BKN080 66.2 44.6 46% 29.98 0.0
11 08:15 S 16 G 23 10.00 Fair CLR 64.4 44.6 49% 29.98 0.0
11 07:55 S 14 10.00 Fair CLR 60.8 46.4 59% 29.98 0.0
11 07:35 S 12 10.00 Fair CLR 59 46.4 63% 29.98 0.0
11 07:15 S 9 10.00 Fair CLR 57.2 46.4 67% 29.98 0.0
11 06:55 S 7 10.00 Fair CLR 55.4 46.4 72% 29.99 0.0
11 06:35 S 8 10.00 Fair CLR 55.4 46.4 72% 29.99 0.0
11 06:15 S 7 10.00 Fair CLR 53.6 46.4 77% 29.98 0.0
11 05:35 S 7 10.00 Fair CLR 51.8 44.6 77% 29.99 0.0
11 05:15 S 8 10.00 Fair CLR 51.8 46.4 82% 29.98 0.0
11 04:55 SE 8 10.00 Fair CLR 51.8 46.4 82% 29.98 0.0
11 04:35 S 8 10.00 Fair CLR 51.8 46.4 82% 29.98 0.0
11 04:15 SE 8 10.00 Fair CLR 51.8 46.4 82% 29.98 0.0
11 03:55 S 8 10.00 Fair CLR 53.6 44.6 72% 29.99 0.0
11 03:35 S 8 10.00 Fair CLR 53.6 44.6 72% 29.99 0.0
11 03:15 S 8 10.00 Fair CLR 53.6 46.4 77% 29.99 0.0
11 02:55 S 7 10.00 Fair CLR 53.6 44.6 72% 30 0.0
11 02:35 S 6 10.00 Fair CLR 53.6 46.4 77% 30 0.0
11 02:15 SE 7 10.00 Fair CLR 53.6 46.4 77% 30 0.0
11 01:55 S 6 10.00 Fair CLR 53.6 46.4 77% 30.01 0.0
11 01:35 S 6 10.00 Fair CLR 55.4 46.4 72% 30.01 0.0
11 01:15 S 6 10.00 Fair CLR 55.4 46.4 72% 30.01 0.0
11 00:55 S 6 10.00 Fair CLR 55.4 46.4 72% 30.01 0.0
11 00:35 SE 7 10.00 Fair CLR 57.2 46.4 67% 30.01 0.0
11 00:15 SE 7 10.00 Fair CLR 57.2 46.4 67% 30.01 0.0
10 23:35 SE 6 10.00 Fair CLR 59 44.6 59% 30.02 0.0
10 23:15 SE 6 10.00 Fair CLR 59 46.4 63% 30.02 0.0
10 22:55 SE 6 10.00 Fair CLR 59 46.4 63% 30.01 0.0
10 22:35 SE 6 10.00 Fair CLR 60.8 44.6 55% 30.01 0.0
10 22:15 SE 6 10.00 Fair CLR 60.8 44.6 55% 30 0.0
10 21:55 SE 6 10.00 Fair CLR 62.6 44.6 52% 29.99 0.0
10 21:35 E 5 10.00 Fair CLR 62.6 44.6 52% 29.98 0.0
10 21:15 E 6 10.00 Fair CLR 64.4 44.6 49% 29.97 0.0
10 20:55 E 5 10.00 Fair CLR 66.2 44.6 46% 29.97 0.0
10 20:35 E 3 10.00 Fair CLR 69.8 41 35% 29.97 0.0
10 20:15 SE 6 9.00 Fair CLR 69.8 41 35% 29.97 0.0
10 19:55 Calm 10.00 Fair CLR 71.6 39.2 31% 29.97 0.0
10 19:35 Calm 10.00 Fair CLR 71.6 37.4 29% 29.97 0.0
10 19:15 E 5 10.00 Fair CLR 71.6 37.4 29% 29.97 0.0
10 18:55 NE 3 10.00 Fair CLR 71.6 39.2 31% 29.97 0.0
10 18:35 Calm 10.00 Fair CLR 71.6 37.4 29% 29.98 0.0
10 18:15 Calm 10.00 Fair CLR 71.6 37.4 29% 29.99 0.0
10 17:55 E 5 10.00 Fair CLR 73.4 37.4 27% 29.99 0.0
10 17:35 Vrbl 5 10.00 Fair CLR 71.6 37.4 29% 29.99 0.0
10 17:15 E 8 10.00 Fair CLR 71.6 37.4 29% 29.99 0.0
10 16:55 Vrbl 6 G 14 10.00 Fair CLR 71.6 37.4 29% 30 0.0
10 16:35 E 5 10.00 Fair CLR 71.6 35.6 27% 30.01 0.0
10 16:15 Vrbl 5 10.00 Fair CLR 71.6 37.4 29% 30.01 0.0
10 15:55 Vrbl 6 10.00 Fair CLR 71.6 37.4 29% 30.02 0.0
10 15:35 NE 9 G 15 10.00 Fair CLR 71.6 37.4 29% 30.02 0.0
10 15:15 N 10 10.00 Fair CLR 69.8 37.4 31% 30.02 0.0
10 14:55 NE 12 10.00 Fair CLR 69.8 37.4 31% 30.02 0.0
10 14:35 Vrbl 7 G 15 10.00 Fair CLR 69.8 37.4 31% 30.03 0.0
10 14:15 NE 8 10.00 Fair CLR 69.8 39.2 33% 30.04 0.0
10 13:55 NE 5 G 14 10.00 Fair CLR 69.8 39.2 33% 30.05 0.0
10 13:35 NE 13 G 20 10.00 Fair CLR 68 39.2 35% 30.05 0.0
10 13:15 Vrbl 6 G 13 10.00 Fair CLR 68 39.2 35% 30.06 0.0
10 12:55 NE 12 10.00 Fair CLR 68 41 38% 30.06 0.0
10 12:35 NE 6 G 15 10.00 Fair CLR 66.2 41 40% 30.07 0.0
10 12:15 N 9 10.00 Fair CLR 66.2 39.2 37% 30.07 0.0
10 11:55 NE 9 10.00 Fair CLR 64.4 39.2 40% 30.07 0.0
10 11:35 NE 13 10.00 Fair CLR 64.4 39.2 40% 30.07 0.0
10 11:15 NE 12 10.00 Fair CLR 64.4 39.2 40% 30.08 0.0
10 10:55 NE 8 G 14 10.00 Fair CLR 62.6 39.2 42% 30.09 0.0
10 10:35 Vrbl 7 G 17 10.00 Fair CLR 62.6 39.2 42% 30.09 0.0
10 10:15 E 6 G 15 10.00 Fair CLR 60.8 39.2 45% 30.08 0.0
10 09:55 NE 7 G 14 10.00 Fair CLR 60.8 39.2 45% 30.09 0.0
10 09:35 NE 9 G 17 10.00 Fair CLR 60.8 41 48% 30.09 0.0
10 09:15 NE 13 10.00 Fair CLR 60.8 41 48% 30.09 0.0
10 08:55 NE 15 10.00 Fair CLR 59 39.2 48% 30.08 0.0
10 08:35 NE 10 G 21 10.00 Fair CLR 59 42.8 55% 30.08 0.0
10 08:15 NE 14 10.00 Fair CLR 57.2 44.6 63% 30.08 0.0
10 07:55 NE 15 10.00 Fair CLR 57.2 46.4 67% 30.08 0.0
10 07:35 NE 13 10.00 Fair CLR 55.4 48.2 77% 30.08 0.0
10 07:15 NE 12 10.00 Fair CLR 55.4 48.2 77% 30.08 0.0
10 06:55 N 8 10.00 Fair CLR 53.6 50 88% 30.08 0.0
10 06:35 N 8 10.00 Fair CLR 53.6 48.2 82% 30.07 0.0
10 06:15 N 6 10.00 Fair CLR 51.8 46.4 82% 30.08 0.0
10 05:55 NE 6 10.00 Fair CLR 51.8 44.6 77% 30.07 0.0
10 05:35 NE 7 10.00 Fair CLR 51.8 44.6 77% 30.06 0.0
10 05:15 NE 7 10.00 Fair CLR 51.8 44.6 77% 30.05 0.0
10 04:55 NE 8 10.00 Fair CLR 53.6 42.8 67% 30.05 0.0
10 04:35 NE 12 10.00 Fair CLR 55.4 42.8 63% 30.04 0.0
10 04:15 NE 12 10.00 Partly Cloudy SCT042 55.4 42.8 63% 30.04 0.0
10 03:55 NE 16 10.00 Overcast OVC042 57.2 44.6 63% 30.02 0.0
10 03:35 NE 14 10.00 Overcast OVC042 59 48.2 68% 30.02 0.0
10 03:15 NE 15 10.00 Overcast OVC043 59 51.8 77% 30.02 0.0
10 02:55 N 10 10.00 Mostly Cloudy BKN044 59 51.8 77% 30.02 0.0
Date Time (cdt) Wind (mph) Vis. (mi.) Weather Sky Cond. Air Dwpt Max. Min. Relative Humidity Wind Chill (°F) Heat Index (°F) altimeter (in) sea level (mb) 1 hr 3 hr 6 hr
6 hour
Temperature (ºF) Pressure Precipitation (in)